Regional Weather Roundup
Issued by NWS

Home | Current Version | Previous Version | Text Only | Print | Product List | Glossary Off
Versions: 1 2 3 4 5 6 7 8 9 10 11 12 13 14 15 16 17 18 19 20 21 22 23 24 25 26 27

000
ASUS45 KPSR 251310
RWRAZ

ARIZONA HOURLY REGIONAL WEATHER ROUNDUP
NATIONAL WEATHER SERVICE PHOENIX AZ
600 AM MST WED MAY 25 2016

NOTE: FAIR INDICATES FEW OR NO CLOUDS BELOW 12,000 FEET WITH NO
SIGNIFICANT WEATHER AND/OR OBSTRUCTIONS TO VISIBILITY.

AZZ001>003-036-251400-
NORTHWEST ARIZONA

CITY           SKY/WX    TMP DP  RH WIND       PRES   REMARKS
BULLHEAD CITY  CLEAR     63  30  29 SE5       29.93R
KINGMAN        CLEAR     44  16  32 SW3       29.98R
$$

AZZ004>008-015-016-018-251400-
NORTH CENTRAL ARIZONA

CITY           SKY/WX    TMP DP  RH WIND       PRES   REMARKS
GRAND CANYON   CLEAR     29  15  56 E5        30.13R WCI  24
WILLIAMS       CLEAR     41  14  33 VRB7      30.18R
PRESCOTT       CLEAR     42  21  43 SW8       30.07R
FLAGSTAFF      CLEAR     33  21  61 CALM      30.12R
PAYSON         CLEAR     46  25  42 CALM      30.10S
PAGE           CLEAR     57  20  23 CALM      30.03R
$$

AZZ009>014-017-251400-
NORTHEAST ARIZONA

CITY           SKY/WX    TMP DP  RH WIND       PRES   REMARKS
WINSLOW        CLEAR     45  24  43 SE5       30.09R
SAINT JOHNS    CLEAR     40  22  48 CALM      30.12R
WINDOW ROCK    CLEAR     36  19  50 CALM      30.17R
SHOW LOW       CLEAR     46  23  39 S13       30.14R
$$

AZZ023-251400-
GREATER PHOENIX AREA

CITY           SKY/WX    TMP DP  RH WIND       PRES   REMARKS
PHOENIX        CLEAR     67  34  29 E7        29.92R
BUCKEYE        CLEAR     57  25  28 CALM      29.95R
GLENDALE       CLEAR     63  28  27 NW5       29.94
LUKE AFB       CLEAR     61  31  32 NW7       29.92R
DEER VALLEY    CLEAR     60  20  21 CALM      29.94R
SCOTTSDALE     CLEAR     64  31  28 CALM      29.95R
MESA-GATEWAY   CLEAR     57  34  41 E7        29.95R
CHANDLER       CLEAR     61  34  36 SE3       29.94
$$

AZZ027-028-251400-
SOUTHWEST MARICOPA COUNTY AND PINAL COUNTY

CITY           SKY/WX    TMP DP  RH WIND       PRES   REMARKS
CASA GRANDE    CLEAR     61  34  36 W6        29.96R
GILA BEND      FAIR      63  27  25 SE7       29.93R
$$

AZZ503-504-507>509-251400-
SOUTHEAST ARIZONA

CITY           SKY/WX    TMP DP  RH WIND       PRES   REMARKS
TUCSON         CLEAR     59  31  34 SE9       30.02R
DAVIS-MONTHAN  CLEAR     60  29  30 SE7       30.01R
NOGALES        CLEAR     50  31  48 CALM      30.06R
SIERRA VISTA   CLEAR     63  26  24 S6        30.10R
DOUGLAS        CLEAR     57  18  21 SE6       30.08R
SAFFORD        CLEAR     56  22  26 E3        30.02R
$$

AZZ020-021-025-026-031-251400-
SOUTHWEST ARIZONA

CITY           SKY/WX    TMP DP  RH WIND       PRES   REMARKS
YUMA           CLEAR     63  41  44 W5        29.92R
$$

CAZ031-033-041-043-047-048-061-251400-
SOUTHERN CALIFORNIA

CITY           SKY/WX    TMP DP  RH WIND       PRES   REMARKS
DOWNTOWN L.A.  MOCLDY    58  51  78 CALM      30.04R
L.A. AIRPORT   MOCLDY    57  50  77 CALM      30.05R
SAN DIEGO      MOCLDY    61  51  70 CALM      30.06R
BURBANK        MOCLDY    56  49  77 CALM      30.03S
ONTARIO        MOCLDY    54  49  83 VRB3      30.04R
RIVERSIDE      CLOUDY    56  49  77 CALM      30.05R
PALM SPRINGS   CLEAR     64  36  35 W8        29.94R
EL CENTRO NAS  PTCLDY    59  34  39 W12       29.95R
IMPERIAL       CLEAR     59  37  44 W7        29.93R
BLYTHE         CLEAR     58  44  60 NW3       29.91R
NEEDLES        CLEAR     67  38  34 W9        29.90R
$$

NVZ020-UTZ003-251400-
SOUTHERN NEVADA-UTAH

CITY           SKY/WX    TMP DP  RH WIND       PRES   REMARKS
LAS VEGAS      PTCLDY    62  37  39 S6        29.89R
SALT LAKE CITY MOCLDY    54  41  61 SE9       29.99R
$$

NMZ009-TXZ055-251400-
NEW MEXICO-WEST TEXAS

CITY           SKY/WX    TMP DP  RH WIND       PRES   REMARKS
ALBUQUERQUE    SUNNY     59  13  16 NW5       30.13R
EL PASO        SUNNY     67  23  19 CALM      30.08R
$$


........................KEY........................
SKY/WX - SKY CONDITION/WEATHER
TMP    - TEMPERATURE IN FAHRENHEIT
DP     - DEW POINT IN FAHRENHEIT
RH     - RELATIVE HUMIDITY IN PERCENT
WIND   - DIRECTION AND SPEED IN MILES PER HOUR (MPH)
VRB    - VARIABLE WIND DIRECTION
PRES   - MEAN SEA LEVEL PRESSURE IN INCHES OF MERCURY
         F - FALLING PRESSURE   R - RISING PRESSURE
         S - STEADY PRESSURE
VSB    - VISIBILITY IN MILES
HX     - HEAT INDEX IN FAHRENHEIT
WCI    - WIND CHILL INDEX IN FAHRENHEIT
TC     - TEMPERATURE IN CELSIUS WHICH IS ALSO KNOWN AS
         TEMPERATURE IN CENTIGRADE
AFB    - AIR FORCE BASE
         LUKE AFB IS LUKE AIR FORCE BASE
         DAVIS-MONTHAN IS DAVIS-MONTHAN AIR FORCE BASE
NAS    - NAVAL AIR STATION
         EL CENTRO NAS IS EL CENTRO NAVAL AIR STATION
N/A    - NOT AVAILABLE





USA.gov is the U.S. government's official web portal to all federal, state and local government web resources and services.